Flag for U.S.A. Weather past 2 weeks in Evansville, Indiana, U.S.A.

Now
71 °F

Sunny.


Feels Like: 70 °F
Forecast: 65 / 83 °F
Wind: 5 mph from East

Location: Evansville Regional Airport

Current Time: Jul 4, 2015 at 8:56:19 AM

Latest Report: Jul 4, 2015 at 7:54 AM


Visibility: 4 mi

Pressure: 29.98 "Hg

Humidity: 84%

Dew point: 66 °F

Location of EvansvilleLocation

Historic Weather in Evansville — Graph

°F

Evansville temperature yesterday

Maximum temperature yesterday: 82 °F (at 2:54 PM)
Minimum temperature yesterday: 70 °F (at 3:54 AM)
Average temperature yesterday: 74 °F

Past Weeks' High & Low Weather Summary

 TemperatureHumidityPressure
High91 °F (Jun 25, 2:54 PM)97% (Jun 20, 12:02 AM)30.16 "Hg (Jun 20, 12:02 AM)
Low57 °F (Jun 28, 5:54 AM)42% (Jun 28, 9:54 AM)29.64 "Hg (Jun 20, 2:54 AM)
Average76 °F77%29.92 "Hg
* Reported Jun 19 6:54 AM — Jul 4 6:54 AM, Evansville, Weather by CustomWeather, © 2015

Note: Actual official high and low records may vary slightly from our data, if they occured in-between our weather recording intervals... More about our weather records

Advertising

Evansville weather history for previous 24 hours

 ConditionsComfort  
Time TempWeatherWind HumidityBarometerVisibility
6:54 AM
Sat, Jul 4
69 °FFog.No wind87%29.97 "Hg3 mi
5:54 AM66 °FFog.5 mph96%29.94 "Hg2 mi
4:54 AM67 °FFog.5 mph93%29.92 "Hg2 mi
3:54 AM68 °FFog.5 mph93%29.91 "Hg4 mi
2:54 AM69 °FFog.5 mph90%29.91 "Hg5 mi
2:03 AM68 °FFog.No wind96%29.91 "Hg3 mi
1:54 AM68 °FFog.No wind96%29.90 "Hg2 mi
12:54 AM69 °FFog.5 mph93%29.91 "Hg3 mi
11:54 PM
Fri, Jul 3
70 °FFog.5 mph93%29.90 "Hg4 mi
11:03 PM71 °FFog.5 mph93%29.90 "Hg3 mi
10:54 PM71 °FFog.3 mph93%29.89 "Hg3 mi
9:54 PM71 °FFog.No wind93%29.89 "Hg6 mi
8:54 PM74 °FThundershowers. Fog.8 mph88%29.88 "Hg5 mi
7:54 PM76 °FFog.No wind88%29.85 "Hg3 mi
6:54 PM76 °FRain. Mostly cloudy.5 mph80%29.85 "Hg3 mi
5:54 PM81 °FScattered clouds.6 mph67%29.83 "Hg5 mi
4:54 PM82 °FBroken clouds.8 mph67%29.82 "Hg5 mi
3:54 PM81 °FScattered clouds.6 mph69%29.83 "Hg5 mi
2:54 PM82 °FBroken clouds.10 mph70%29.84 "Hg5 mi
1:54 PM79 °FLight rain. Scattered clouds.5 mph79%29.85 "Hg3 mi
12:54 PM72 °FHeavy rain. Fog.No wind87%29.86 "Hg3 mi
11:54 AM79 °FScattered clouds.No wind72%29.86 "Hg5 mi
10:54 AM76 °FOvercast.No wind80%29.88 "Hg6 mi
9:54 AM74 °FLow clouds.No wind85%29.86 "Hg4 mi
8:54 AM72 °FFog.5 mph91%29.84 "Hg3 mi
Weather by CustomWeather, © 2015

See weather overviewHow to use our weather pages